Flag for Norway Weather past 2 weeks in Nøtterøy, Norway

Now
55 °F

Sunny.


Feels Like: 52 °F
Forecast: 47 / 61 °F
Wind: 14 mph from West

Location: Torp

Current Time: Jun 3, 2015 at 8:09:08 PM

Latest Report: Jun 3, 2015 at 7:50 PM


Visibility: 10 mi

Pressure: 29.77 "Hg

Humidity: 47%

Dew point: 36 °F

Location of NøtterøyLocation

Historic Weather in Nøtterøy — Graph

°F

Nøtterøy temperature yesterday

Maximum temperature yesterday: 52 °F (at 4:20 PM)
Minimum temperature yesterday: 45 °F (at 1:20 AM)
Average temperature yesterday: 48 °F

Past Weeks' High & Low Weather Summary

 TemperatureHumidityPressure
High63 °F (May 23, 1:50 PM)100% (May 20, 6:20 AM)30.04 "Hg (May 20, 6:20 AM)
Low39 °F (May 23, 2:50 AM)29% (May 23, 5:50 PM)29.27 "Hg (Jun 3, 2:50 AM)
Average50 °F73%29.70 "Hg
* Reported May 19 6:20 PM — Jun 3 6:50 PM, Nøtterøy, Weather by CustomWeather, © 2015

Note: Actual official high and low records may vary slightly from our data, if they occured in-between our weather recording intervals... More about our weather records

Advertising

Nøtterøy weather history for previous 24 hours

 ConditionsComfort  
Time TempWeatherWind HumidityBarometerVisibility
6:50 PM
Wed, Jun 3
59 °FPassing clouds.13 mph45%29.71 "HgN/A
6:20 PM59 °FSunny.16 mph45%29.68 "Hg10 mi
5:50 PM61 °FPassing clouds.17 mph42%29.68 "HgN/A
5:20 PM61 °FSunny.18 mph42%29.65 "Hg10 mi
4:50 PM61 °FPassing clouds.17 mph42%29.65 "HgN/A
4:20 PM61 °FPassing clouds.17 mph42%29.62 "HgN/A
3:50 PM61 °FSunny.18 mph42%29.62 "Hg10 mi
3:20 PM61 °FPassing clouds.18 mph39%29.59 "HgN/A
2:50 PM61 °FPassing clouds.16 mph39%29.59 "HgN/A
2:20 PM61 °FPassing clouds.14 mph42%29.56 "HgN/A
1:50 PM61 °FSunny.17 mph39%29.56 "Hg10 mi
1:20 PM61 °FPassing clouds.15 mph39%29.53 "HgN/A
12:50 PM61 °FPassing clouds.14 mph45%29.53 "HgN/A
12:20 PM59 °FSunny.14 mph51%29.50 "Hg10 mi
11:50 AM57 °FSunny.13 mph44%29.50 "Hg10 mi
11:20 AM57 °FPassing clouds.12 mph48%29.47 "HgN/A
10:50 AM57 °FSunny.16 mph48%29.47 "Hg10 mi
10:20 AM55 °FPassing clouds.14 mph51%29.45 "HgN/A
9:50 AM55 °FScattered clouds.14 mph51%29.45 "HgN/A
9:20 AM54 °FScattered clouds.13 mph54%29.45 "HgN/A
8:50 AM54 °FScattered clouds.14 mph54%29.42 "HgN/A
7:50 AM52 °FPassing clouds.14 mph67%29.39 "HgN/A
7:20 AM52 °FPassing clouds.13 mph67%29.36 "HgN/A
6:50 AM50 °FPassing clouds.15 mph76%29.36 "HgN/A
6:20 AM50 °FPassing clouds.13 mph82%29.33 "HgN/A
5:50 AM48 °FPassing clouds.14 mph87%29.33 "HgN/A
5:20 AM48 °FPassing clouds.17 mph87%29.30 "HgN/A
4:50 AM48 °FPassing clouds.15 mph87%29.30 "HgN/A
4:20 AM48 °FPartly cloudy.17 mph87%29.30 "HgN/A
3:50 AM48 °FPassing clouds.17 mph87%29.30 "HgN/A
3:20 AM48 °FPartly cloudy.20 mph87%29.30 "HgN/A
2:50 AM48 °FPassing clouds.20 mph87%29.27 "HgN/A
2:20 AM48 °FMostly cloudy.20 mph87%29.30 "HgN/A
1:50 AM50 °FPartly cloudy.17 mph82%29.30 "HgN/A
1:20 AM48 °FPartly cloudy.23 mph87%29.30 "HgN/A
12:50 AM48 °FPassing clouds.23 mph87%29.30 "HgN/A
12:20 AM50 °FPartly cloudy.21 mph82%29.30 "HgN/A
11:50 PM
Tue, Jun 2
48 °FPartly cloudy.24 mph87%29.30 "HgN/A
11:20 PM48 °FPartly cloudy.23 mph87%29.30 "HgN/A
10:50 PM48 °FPartly sunny.22 mph82%29.33 "HgN/A
10:20 PM48 °FScattered clouds.24 mph82%29.33 "HgN/A
9:50 PM48 °FScattered clouds.22 mph82%29.30 "HgN/A
9:20 PM48 °FScattered clouds.24 mph82%29.30 "HgN/A
8:50 PM50 °FPassing clouds.23 mph76%29.30 "HgN/A
8:20 PM50 °FPassing clouds.24 mph76%29.30 "HgN/A
Weather by CustomWeather, © 2015

See weather overviewHow to use our weather pages